CCM40AR LFML-LFKJ

Flight info

Callsign CCM40AR
Flight time N/A
Altitude 23000
Route TINOT Z154 RUBAS
Aircraft A320/M-SDE3FGHIRWY/LB1

Departure

Time 2026-04-28 20:35
Airport Marseille Provence Airport (LFML)

Arrival

Time N/A
Airport Ajaccio Napoléon Bonaparte airport (LFKJ)
Time Latitude Longitude Altitude Speed Heading
2026-04-28 20:35 43.17297 5.33130 10726 ft 325 kts 179°
2026-04-28 20:35 43.14982 5.33185 11224 ft 338 kts 179°
2026-04-28 20:35 43.12605 5.33242 11961 ft 344 kts 179°
2026-04-28 20:35 43.10186 5.33300 12649 ft 351 kts 179°
2026-04-28 20:36 43.07726 5.33358 13361 ft 356 kts 179°
2026-04-28 20:36 43.05230 5.33412 14066 ft 361 kts 179°
2026-04-28 20:36 43.02706 5.33466 14741 ft 365 kts 179°
2026-04-28 20:36 43.00156 5.33501 15408 ft 368 kts 180°
2026-04-28 20:37 42.97584 5.33418 16092 ft 371 kts 182°
2026-04-28 20:37 42.94989 5.33249 16747 ft 375 kts 183°
2026-04-28 20:37 42.92405 5.33042 17489 ft 377 kts 183°
2026-04-28 20:37 42.89760 5.32828 17942 ft 382 kts 184°
2026-04-28 20:38 42.87114 5.32621 18698 ft 380 kts 184°
2026-04-28 20:38 42.84504 5.32433 19302 ft 382 kts 184°
2026-04-28 20:38 42.81840 5.32257 19872 ft 385 kts 184°
2026-04-28 20:38 42.79146 5.32090 20434 ft 389 kts 184°
2026-04-28 20:39 42.76429 5.32010 20986 ft 393 kts 177°
2026-04-28 20:39 42.73732 5.32721 21518 ft 399 kts 161°
2026-04-28 20:39 42.71233 5.34416 22066 ft 404 kts 145°
2026-04-28 20:39 42.69143 5.36985 22584 ft 409 kts 129°
2026-04-28 20:40 42.67620 5.40255 22971 ft 412 kts 114°
2026-04-28 20:40 42.66640 5.43907 23058 ft 411 kts 108°
2026-04-28 20:40 42.65730 5.47587 23065 ft 411 kts 108°
2026-04-28 20:40 42.64820 5.51267 23065 ft 411 kts 108°
2026-04-28 20:41 42.63905 5.54938 23065 ft 410 kts 108°
2026-04-28 20:41 42.62988 5.58597 23065 ft 410 kts 108°
2026-04-28 20:41 42.62066 5.62256 23065 ft 410 kts 108°
2026-04-28 20:41 42.61140 5.65922 23065 ft 410 kts 108°
2026-04-28 20:42 42.60214 5.69580 23065 ft 409 kts 109°
2026-04-28 20:42 42.59289 5.73228 23068 ft 408 kts 109°
2026-04-28 20:42 42.58376 5.76827 23067 ft 408 kts 109°
2026-04-28 20:42 42.57452 5.80464 23066 ft 408 kts 109°
2026-04-28 20:43 42.56525 5.84104 23072 ft 407 kts 109°
2026-04-28 20:43 42.55597 5.87735 23072 ft 407 kts 109°
2026-04-28 20:43 42.54667 5.91361 23071 ft 407 kts 109°
2026-04-28 20:43 42.53735 5.94993 23070 ft 407 kts 109°
2026-04-28 20:44 42.52807 5.98618 23071 ft 407 kts 108°
2026-04-28 20:44 42.51880 6.02245 23075 ft 409 kts 108°
2026-04-28 20:44 42.50945 6.05891 23089 ft 409 kts 109°
2026-04-28 20:44 42.50007 6.09532 23100 ft 409 kts 109°
2026-04-28 20:45 42.49070 6.13169 23100 ft 408 kts 109°
2026-04-28 20:45 42.48135 6.16801 23100 ft 408 kts 109°
2026-04-28 20:45 42.47201 6.20418 23100 ft 407 kts 109°
2026-04-28 20:45 42.46264 6.24037 23096 ft 407 kts 109°
2026-04-28 20:46 42.45339 6.27609 23093 ft 406 kts 109°
2026-04-28 20:46 42.44401 6.31220 23091 ft 406 kts 109°
2026-04-28 20:46 42.43463 6.34832 23090 ft 406 kts 109°
2026-04-28 20:46 42.42525 6.38440 23090 ft 406 kts 109°
2026-04-28 20:47 42.41585 6.42044 23090 ft 406 kts 109°
2026-04-28 20:47 42.40645 6.45643 23088 ft 405 kts 109°
2026-04-28 20:47 42.39702 6.49237 23085 ft 405 kts 110°
2026-04-28 20:47 42.38759 6.52825 23084 ft 405 kts 110°
2026-04-28 20:48 42.37814 6.56423 23082 ft 405 kts 110°
2026-04-28 20:48 42.36870 6.60010 23082 ft 405 kts 110°
2026-04-28 20:48 42.35938 6.63550 23081 ft 405 kts 110°
2026-04-28 20:48 42.34993 6.67135 23080 ft 405 kts 110°
2026-04-28 20:49 42.34045 6.70722 23083 ft 405 kts 110°
2026-04-28 20:49 42.33098 6.74301 23083 ft 405 kts 110°
2026-04-28 20:49 42.32151 6.77878 23083 ft 404 kts 110°
2026-04-28 20:49 42.31202 6.81460 23083 ft 404 kts 110°
2026-04-28 20:50 42.30255 6.85033 23075 ft 404 kts 111°
2026-04-28 20:50 42.29304 6.88612 23072 ft 405 kts 111°
2026-04-28 20:50 42.28352 6.92192 23071 ft 405 kts 111°
2026-04-28 20:50 42.27394 6.95781 23071 ft 405 kts 111°
2026-04-28 20:51 42.26438 6.99359 23071 ft 405 kts 111°
2026-04-28 20:51 42.25479 7.02939 23073 ft 405 kts 111°
2026-04-28 20:51 42.24534 7.06470 23075 ft 405 kts 111°
2026-04-28 20:51 42.23886 7.08891 23076 ft 405 kts 111°
2026-04-28 20:52 42.22614 7.13625 23081 ft 405 kts 111°
2026-04-28 20:52 42.21648 7.17204 23082 ft 405 kts 111°
2026-04-28 20:52 42.20682 7.20786 23085 ft 405 kts 111°
2026-04-28 20:52 42.19717 7.24368 23084 ft 405 kts 111°
2026-04-28 20:53 42.17784 7.31515 23087 ft 405 kts 111°
2026-04-28 20:53 42.16828 7.35044 23087 ft 405 kts 112°
2026-04-28 20:53 42.15860 7.38605 23087 ft 405 kts 112°
2026-04-28 20:54 42.14890 7.42170 23088 ft 405 kts 112°
2026-04-28 20:54 42.13918 7.45731 23091 ft 405 kts 112°
2026-04-28 20:54 42.12944 7.49291 23089 ft 405 kts 112°
2026-04-28 20:54 42.11971 7.52848 23091 ft 404 kts 112°
2026-04-28 20:55 42.11017 7.56351 22904 ft 393 kts 112°
2026-04-28 20:55 42.10082 7.59784 22451 ft 387 kts 112°
2026-04-28 20:55 42.09152 7.63180 21940 ft 385 kts 112°
2026-04-28 20:55 42.08228 7.66544 21443 ft 382 kts 112°
2026-04-28 20:56 42.07307 7.69890 20948 ft 379 kts 112°
2026-04-28 20:56 42.06392 7.73208 20479 ft 377 kts 112°
2026-04-28 20:56 42.05485 7.76498 19998 ft 374 kts 112°
2026-04-28 20:56 42.04580 7.79776 19542 ft 372 kts 112°
2026-04-28 20:57 42.03681 7.83024 19090 ft 369 kts 112°
2026-04-28 20:57 42.02787 7.86246 18644 ft 367 kts 111°
2026-04-28 20:57 42.01898 7.89449 18183 ft 365 kts 111°
2026-04-28 20:57 42.01024 7.92593 17703 ft 362 kts 111°
2026-04-28 20:58 42.00144 7.95751 17232 ft 360 kts 111°
2026-04-28 20:58 41.99267 7.98893 16748 ft 358 kts 111°
2026-04-28 20:58 41.98217 8.01905 16287 ft 355 kts 122°
2026-04-28 20:58 41.96754 8.04551 15841 ft 351 kts 134°
2026-04-28 20:59 41.94965 8.06759 15409 ft 349 kts 141°
2026-04-28 20:59 41.93107 8.08844 14977 ft 347 kts 141°
2026-04-28 20:59 41.91257 8.10921 14551 ft 345 kts 141°
2026-04-28 20:59 41.89418 8.12988 14179 ft 344 kts 141°